This is the latest recevied weather packets stored in our database for station/object NC4M. If no packets are shown the sender has not sent any weather packets the latest 10 day(s).
| Time | Temp. | Humidity | Pressure | Rain* | Wind** | Luminosity | Snow |
|---|---|---|---|---|---|---|---|
| 1777412114 | 13.33° C | 94% | 1013.3 hPa | 4.83 mm | - | 31 W/m² | - |
| 1777411809 | 13.33° C | 94% | 1013.5 hPa | 6.6 mm | - | 21 W/m² | - |
| 1777411508 | 13.33° C | 94% | 1013.7 hPa | 6.1 mm | - | 24 W/m² | - |
| 1777411203 | 13.33° C | 94% | 1013.6 hPa | 6.1 mm | - | 17 W/m² | - |
| 1777410897 | 13.33° C | 94% | 1014.4 hPa | 6.1 mm | - | 22 W/m² | - |
| 1777410597 | 13.33° C | 94% | 1014.3 hPa | 6.1 mm | - | 22 W/m² | - |
| 1777410296 | 13.33° C | 94% | 1014.3 hPa | 4.32 mm | - | 21 W/m² | - |
| 1777409992 | 13.33° C | 94% | 1014.3 hPa | 3.05 mm | - | 16 W/m² | - |
| 1777409687 | 13.33° C | 94% | 1013.8 hPa | 1.78 mm | - | 14 W/m² | - |
| 1777409383 | 13.33° C | 94% | 1013.8 hPa | 1.78 mm | - | 14 W/m² | - |
| 1777409079 | 13.33° C | 93% | 1014.1 hPa | 1.78 mm | - | 14 W/m² | - |
| 1777408775 | 13.33° C | 93% | 1014.5 hPa | 1.27 mm | - | 15 W/m² | - |
| 1777408471 | 13.33° C | 93% | 1014.3 hPa | 3.05 mm | - | 13 W/m² | - |
| 1777408166 | 12.78° C | 93% | 1014.3 hPa | 1.78 mm | - | 10 W/m² | - |
| 1777407862 | 12.78° C | 93% | 1013.8 hPa | 0 mm | - | 8 W/m² | - |
| 1777407560 | 12.78° C | 93% | 1013.2 hPa | 0 mm | - | 8 W/m² | - |
| 1777407259 | 12.78° C | 92% | 1013.4 hPa | 0 mm | - | 8 W/m² | - |
| 1777406958 | 12.78° C | 92% | 1013.1 hPa | 0 mm | - | 9 W/m² | - |
| 1777406653 | 12.78° C | 92% | 1013.3 hPa | 1.27 mm | - | 12 W/m² | - |
| 1777406350 | 12.78° C | 92% | 1013.7 hPa | 3.05 mm | - | 13 W/m² | - |
| 1777406049 | 12.78° C | 92% | 1013 hPa | 3.05 mm | - | 11 W/m² | - |
| 1777405746 | 12.78° C | 92% | 1013.7 hPa | 4.32 mm | - | 9 W/m² | - |
| 1777405442 | 12.78° C | 92% | 1013.3 hPa | 4.83 mm | - | 10 W/m² | - |
| 1777405140 | 12.78° C | 91% | 1014.1 hPa | 3.05 mm | - | 10 W/m² | - |
| 1777404838 | 13.33° C | 90% | 1014.1 hPa | 4.32 mm | - | 10 W/m² | - |
* Rain latest hour (hover to see other rain measurements)
** Current wind speed in m/s (hover to see current wind gust speed)